• In Romania
  • List of Countries
  • For 7 days
  • Water Temperature
  • Satellite Maps
  • Weather Map
  • Weather Widgets
  • user-avatar
    Login

    Hourly Weather Ganja

    Today, 21 August, Monday

    Time Temperature Precipitation Wind Pressure Humidity
    00:00 +26°C° 0 mm 3 mps 726 mmHg 43%
    01:00 +26°C° 0 mm 2 mps 725 mmHg 44%
    02:00 +25°C° 0 mm 2 mps 725 mmHg 44%
    03:00 +25°C° 0 mm 1 mps 725 mmHg 44%
    04:00 +25°C° 0 mm 1 mps 725 mmHg 45%
    05:00 +25°C° 0 mm 1 mps 725 mmHg 46%
    06:00 +25°C° 0 mm 1 mps 725 mmHg 47%
    07:00 +27°C° 0 mm 1 mps 725 mmHg 42%
    08:00 +28°C° 0 mm 2 mps 725 mmHg 38%
    09:00 +31°C° 0 mm 2 mps 725 mmHg 33%
    10:00 +32°C° 0 mm 2 mps 724 mmHg 31%
    11:00 +34°C° 0 mm 3 mps 724 mmHg 30%
    12:00 +35°C° 0 mm 3 mps 724 mmHg 28%
    13:00 +36°C° 0 mm 3 mps 723 mmHg 28%
    14:00 +36°C° 0 mm 4 mps 723 mmHg 27%
    15:00 +37°C° 0 mm 4 mps 723 mmHg 28%
    16:00 +36°C° 0 mm 4 mps 723 mmHg 30%
    17:00 +36°C° 0 mm 4 mps 723 mmHg 32%
    18:00 +35°C° 0 mm 3 mps 723 mmHg 34%
    19:00 +33°C° 0 mm 3 mps 723 mmHg 37%
    20:00 +31°C° 0 mm 3 mps 723 mmHg 40%
    21:00 +29°C° 0 mm 3 mps 723 mmHg 43%
    22:00 +28°C° 0 mm 3 mps 723 mmHg 45%
    23:00 +28°C° 0 mm 2 mps 723 mmHg 46%

    Tomorrow, 22 August, Tuesday

    Time Temperature Precipitation Wind Pressure Humidity
    00:00 +27°C° 0 mm 2 mps 723 mmHg 48%
    01:00 +26°C° 0 mm 2 mps 723 mmHg 50%
    02:00 +26°C° 0 mm 1 mps 723 mmHg 51%
    03:00 +25°C° 0 mm 1 mps 723 mmHg 53%
    04:00 +25°C° 0 mm 1 mps 723 mmHg 52%
    05:00 +25°C° 0 mm 1 mps 723 mmHg 51%
    06:00 +25°C° 0 mm 2 mps 723 mmHg 51%
    07:00 +27°C° 0 mm 2 mps 723 mmHg 45%
    08:00 +29°C° 0 mm 2 mps 723 mmHg 39%
    09:00 +31°C° 0 mm 2 mps 723 mmHg 33%
    10:00 +32°C° 0 mm 2 mps 723 mmHg 31%
    11:00 +34°C° 0 mm 2 mps 722 mmHg 28%
    12:00 +35°C° 0 mm 3 mps 722 mmHg 26%
    13:00 +36°C° 0 mm 3 mps 722 mmHg 25%
    14:00 +37°C° 0 mm 3 mps 721 mmHg 24%
    15:00 +37°C° 0 mm 4 mps 721 mmHg 23%
    16:00 +37°C° 0 mm 4 mps 721 mmHg 25%
    17:00 +36°C° 0 mm 3 mps 721 mmHg 27%
    18:00 +35°C° 0 mm 3 mps 721 mmHg 28%
    19:00 +34°C° 0 mm 4 mps 721 mmHg 31%
    20:00 +32°C° 0 mm 4 mps 722 mmHg 33%
    21:00 +29°C° 0 mm 4 mps 722 mmHg 35%
    22:00 +29°C° 0 mm 4 mps 722 mmHg 37%
    23:00 +28°C° 0 mm 3 mps 722 mmHg 39%

    Day after tomorrow, 23 August, Wednesday

    Time Temperature Precipitation Wind Pressure Humidity
    00:00 +27°C° 0 mm 3 mps 723 mmHg 41%
    01:00 +26°C° 0 mm 2 mps 722 mmHg 42%
    02:00 +26°C° 0 mm 2 mps 722 mmHg 43%
    03:00 +25°C° 0 mm 1 mps 722 mmHg 45%
    04:00 +25°C° 0 mm 1 mps 723 mmHg 45%
    05:00 +25°C° 0 mm 1 mps 723 mmHg 46%
    06:00 +25°C° 0 mm 1 mps 723 mmHg 46%
    07:00 +27°C° 0 mm 2 mps 723 mmHg 40%
    08:00 +29°C° 0 mm 2 mps 723 mmHg 33%
    09:00 +31°C° 0 mm 3 mps 723 mmHg 27%
    10:00 +33°C° 0 mm 4 mps 723 mmHg 24%
    11:00 +35°C° 0 mm 4 mps 723 mmHg 22%
    12:00 +36°C° 0 mm 5 mps 723 mmHg 19%
    13:00 +38°C° 0 mm 6 mps 722 mmHg 20%
    14:00 +38°C° 0 mm 6 mps 722 mmHg 20%
    15:00 +39°C° 0 mm 6 mps 722 mmHg 21%
    16:00 +38°C° 0 mm 6 mps 722 mmHg 23%
    17:00 +36°C° 0 mm 6 mps 722 mmHg 26%
    18:00 +34°C° 0 mm 5 mps 722 mmHg 28%
    19:00 +33°C° 0 mm 4 mps 723 mmHg 31%
    20:00 +30°C° 0 mm 3 mps 723 mmHg 33%
    21:00 +28°C° 0 mm 2 mps 724 mmHg 36%
    22:00 +27°C° 0 mm 2 mps 724 mmHg 38%
    23:00 +26°C° 0 mm 1 mps 724 mmHg 40%

    24 August, Thursday

    Time Temperature Precipitation Wind Pressure Humidity
    00:00 +26°C° 0 mm 1 mps 725 mmHg 42%
    01:00 +25°C° 0 mm 1 mps 725 mmHg 42%
    02:00 +25°C° 0 mm 2 mps 725 mmHg 43%
    03:00 +25°C° 0 mm 2 mps 725 mmHg 43%
    04:00 +25°C° 0 mm 2 mps 725 mmHg 45%
    05:00 +25°C° 0 mm 2 mps 725 mmHg 46%
    06:00 +25°C° 0 mm 2 mps 726 mmHg 47%
    07:00 +27°C° 0 mm 3 mps 726 mmHg 43%
    08:00 +29°C° 0 mm 3 mps 726 mmHg 39%
    09:00 +31°C° 0 mm 3 mps 726 mmHg 35%
    10:00 +33°C° 0 mm 3 mps 726 mmHg 31%
    11:00 +35°C° 0 mm 4 mps 726 mmHg 27%
    12:00 +36°C° 0 mm 5 mps 725 mmHg 23%
    13:00 +37°C° 0 mm 5 mps 725 mmHg 22%
    14:00 +38°C° 0 mm 6 mps 725 mmHg 20%
    15:00 +39°C° 0 mm 7 mps 725 mmHg 19%
    16:00 +38°C° 0 mm 6 mps 725 mmHg 21%
    17:00 +36°C° 0 mm 6 mps 725 mmHg 23%
    18:00 +35°C° 0 mm 6 mps 725 mmHg 25%
    19:00 +33°C° 0 mm 6 mps 726 mmHg 28%
    20:00 +30°C° 0 mm 5 mps 726 mmHg 32%
    21:00 +28°C° 0 mm 5 mps 727 mmHg 35%
    22:00 +27°C° 0 mm 4 mps 727 mmHg 37%
    23:00 +27°C° 0 mm 4 mps 727 mmHg 39%

    25 August, Friday

    Time Temperature Precipitation Wind Pressure Humidity
    00:00 +26°C° 0 mm 3 mps 727 mmHg 41%
    01:00 +25°C° 0 mm 2 mps 727 mmHg 42%
    02:00 +24°C° 0 mm 2 mps 727 mmHg 43%
    03:00 +24°C° 0 mm 1 mps 727 mmHg 44%
    04:00 +24°C° 0 mm 1 mps 727 mmHg 44%
    05:00 +24°C° 0 mm 1 mps 727 mmHg 43%
    06:00 +23°C° 0 mm 1 mps 727 mmHg 43%
    07:00 +25°C° 0 mm 1 mps 727 mmHg 38%
    08:00 +27°C° 0 mm 2 mps 727 mmHg 33%
    09:00 +29°C° 0 mm 2 mps 727 mmHg 27%
    10:00 +31°C° 0 mm 2 mps 727 mmHg 24%
    11:00 +33°C° 0 mm 3 mps 727 mmHg 21%
    12:00 +34°C° 0 mm 3 mps 726 mmHg 19%
    13:00 +35°C° 0 mm 4 mps 726 mmHg 18%
    14:00 +36°C° 0 mm 4 mps 726 mmHg 17%
    15:00 +36°C° 0 mm 5 mps 725 mmHg 16%
    16:00 +35°C° 0 mm 4 mps 726 mmHg 18%
    17:00 +35°C° 0 mm 4 mps 726 mmHg 20%
    18:00 +34°C° 0 mm 4 mps 726 mmHg 23%
    19:00 +32°C° 0 mm 4 mps 726 mmHg 25%
    20:00 +29°C° 0 mm 4 mps 727 mmHg 27%
    21:00 +28°C° 0 mm 4 mps 727 mmHg 29%
    22:00 +27°C° 0 mm 4 mps 727 mmHg 31%
    23:00 +26°C° 0 mm 3 mps 727 mmHg 33%

    26 August, Saturday

    Time Temperature Precipitation Wind Pressure Humidity
    00:00 +25°C° 0 mm 3 mps 727 mmHg 35%
    01:00 +24°C° 0 mm 2 mps 727 mmHg 36%
    02:00 +24°C° 0 mm 2 mps 727 mmHg 36%
    03:00 +23°C° 0 mm 1 mps 727 mmHg 37%
    04:00 +23°C° 0 mm 1 mps 727 mmHg 36%
    05:00 +23°C° 0 mm 1 mps 727 mmHg 36%
    06:00 +23°C° 0 mm 1 mps 728 mmHg 35%
    07:00 +25°C° 0 mm 2 mps 728 mmHg 32%
    08:00 +27°C° 0 mm 2 mps 728 mmHg 29%
    09:00 +29°C° 0 mm 2 mps 728 mmHg 25%
    10:00 +31°C° 0 mm 3 mps 727 mmHg 24%
    11:00 +33°C° 0 mm 4 mps 727 mmHg 22%
    12:00 +34°C° 0 mm 4 mps 726 mmHg 21%
    13:00 +35°C° 0 mm 5 mps 726 mmHg 21%
    14:00 +35°C° 0 mm 5 mps 725 mmHg 21%
    15:00 +36°C° 0 mm 6 mps 725 mmHg 22%
    16:00 +35°C° 0 mm 5 mps 725 mmHg 24%
    17:00 +34°C° 0 mm 5 mps 725 mmHg 26%
    18:00 +33°C° 0 mm 4 mps 725 mmHg 29%
    19:00 +30°C° 0 mm 4 mps 726 mmHg 31%
    20:00 +29°C° 0 mm 4 mps 726 mmHg 34%
    21:00 +27°C° 0 mm 4 mps 727 mmHg 37%
    22:00 +27°C° 0 mm 4 mps 727 mmHg 39%
    23:00 +26°C° 0 mm 3 mps 727 mmHg 40%
    Show more